Iowa City, IA

1:44 AM CDT on October 22, 2019 (GMT -0500)
Iowa City Municipal

Weather History for KIOW - July, 2019

Change the Weather History Date:

Thursday, July 11, 2019

  Actual Average Record
Temperature  
Mean Temperature 75 °F 75 °F  
Max Temperature 85 °F 85 °F 100 °F (1989)
Min Temperature 68 °F 65 °F 53 °F (1953)
Cooling Degree Days 10 10  
Month to date cooling degree days 148 110  
Year to date cooling degree days 392 382  
Since 1 June cooling degree days 346 321  
Growing Degree Days 25 (Base 50)    
Moisture  
Dew Point 64 °F    
Average Humidity 68    
Maximum Humidity 87    
Minimum Humidity 48    
Precipitation  
Precipitation 0.00 in 0.16 in 2.50 in (1974)
Month to date precipitation 0.30 1.98  
Year to date precipitation 24.03 18.68  
Sea Level Pressure  
Sea Level Pressure 29.98 in    
Wind  
Wind Speed 8 mph (NNW)    
Max Wind Speed 15 mph    
Max Gust Speed 25 mph    
Visibility 10 miles    
Events      
T = Trace of Precipitation, MM = Missing Value Source: NWS Daily Summary

Daily Weather History Graph

Daily Weather History Graph

Search for Another Location

Airport or City:

Astronomy

Jul. 11, 2019 Rise Set
Actual Time 5:41 AM CDT 8:41 PM CDT
Civil Twilight 5:08 AM CDT 9:14 PM CDT
Nautical Twilight 4:25 AM CDT 9:56 PM CDT
Astronomical Twilight 3:36 AM CDT 10:46 PM CDT
Moon 3:52 PM CDT (7/11) 1:55 AM CDT (7/11)
Length of Visible Light 16h 06m
Length of Day
14h 59m
Waxing Gibbous, 74% of the Moon is Illuminated
Jul 11
Waxing Gibbous
Jul 16
Full
Jul 24
Last Quarter
Jul 31
New
Aug 7
First Quarter

Hourly Weather History & Observations

Time (CDT) Temp. Heat Index Dew Point Humidity Pressure Visibility Wind Dir Wind Speed Gust Speed Precip Events Conditions
12:52 AM 73.0 °F - 63.0 °F 71% 29.95 in 10.0 mi WNW 9.2 mph - N/A   Clear
1:52 AM 72.0 °F - 63.0 °F 73% 29.95 in 10.0 mi WNW 5.8 mph - N/A   Clear
2:52 AM 71.1 °F - 63.0 °F 75% 29.94 in 10.0 mi West 4.6 mph - N/A   Overcast
3:52 AM 72.0 °F - 64.0 °F 76% 29.94 in 10.0 mi NW 11.5 mph - N/A   Clear
4:52 AM 70.0 °F - 64.0 °F 81% 29.96 in 10.0 mi NW 9.2 mph - N/A   Clear
5:52 AM 68.0 °F - 64.0 °F 87% 29.97 in 10.0 mi NW 9.2 mph - N/A   Clear
6:52 AM 69.1 °F - 64.0 °F 84% 29.97 in 10.0 mi NNW 11.5 mph - N/A   Clear
7:52 AM 72.0 °F - 64.9 °F 78% 29.99 in 10.0 mi North 10.4 mph - N/A   Partly Cloudy
8:52 AM 75.9 °F - 64.9 °F 69% 30.00 in 10.0 mi North 10.4 mph - N/A   Clear
9:52 AM 77.0 °F - 66.0 °F 69% 30.01 in 10.0 mi North 11.5 mph - N/A   Mostly Cloudy
10:52 AM 79.0 °F - 64.9 °F 62% 30.01 in 10.0 mi North 10.4 mph - N/A   Clear
11:52 AM 81.0 °F 82.7 °F 64.9 °F 58% 30.01 in 10.0 mi North 6.9 mph - N/A   Scattered Clouds
12:52 PM 82.9 °F 84.4 °F 64.0 °F 53% 30.00 in 10.0 mi NNE 9.2 mph - N/A   Scattered Clouds
1:52 PM 82.9 °F 84.4 °F 64.0 °F 53% 30.00 in 10.0 mi NNW 10.4 mph - N/A   Mostly Cloudy
2:52 PM 84.0 °F 84.5 °F 62.1 °F 47% 29.99 in 10.0 mi North 10.4 mph 17.3 mph N/A   Partly Cloudy
3:52 PM - - - N/A% 30.00 in 10.0 mi NNW 9.2 mph - N/A   Scattered Clouds
4:52 PM - - - N/A% 29.99 in 10.0 mi NNE 8.1 mph - N/A   Partly Cloudy
5:52 PM - - - N/A% 29.98 in 10.0 mi NNW 8.1 mph - N/A   Scattered Clouds
6:52 PM - - - N/A% 29.98 in 10.0 mi North 8.1 mph - N/A   Clear
7:52 PM - - - N/A% 29.98 in 10.0 mi North 6.9 mph - N/A   Clear
8:52 PM - - - N/A% 29.98 in 10.0 mi North 5.8 mph - N/A   Clear
9:52 PM - - - N/A% 29.99 in 10.0 mi North 5.8 mph - N/A   Clear
10:52 PM - - - N/A% 29.99 in 10.0 mi North 4.6 mph - N/A   Clear
11:52 PM - - - N/A% 29.99 in 10.0 mi Calm Calm - N/A   Clear